When you browse on this site, cookies collect data to enhance your experience and personalize the content and advertising you see.
Visit our Privacy Policy to learn more. By continuing to use the site, you agree to this use of cookies and data.
  • In Hungary
  • List of Countries
  • For 7 days
  • Water Temperature
  • Satellite Maps
  • Weather Map
  • News
  • Weather Widgets
  • user-avatar
    Login

    Hourly Weather Freiberg

    Today, 19 November, Monday

    Time Temperature Precipitation Wind Pressure Humidity
    00:00 -2°C° 0.1 mm 2 mps 730 mmHg 82%
    01:00 -1°C° 0.1 mm 2 mps 729 mmHg 88%
    02:00 -1°C° 0.2 mm 3 mps 729 mmHg 89%
    03:00 -1°C° 0.2 mm 4 mps 729 mmHg 90%
    04:00 -1°C° 0.2 mm 4 mps 728 mmHg 91%
    05:00 -1°C° 0.2 mm 4 mps 728 mmHg 91%
    06:00 -1°C° 0.2 mm 5 mps 728 mmHg 90%
    07:00 -1°C° 0.2 mm 5 mps 728 mmHg 89%
    08:00 -1°C° 0.1 mm 5 mps 728 mmHg 86%
    09:00 -2°C° 0.1 mm 6 mps 728 mmHg 83%
    10:00 -1°C° 0.1 mm 6 mps 728 mmHg 79%
    11:00 -1°C° 0.1 mm 6 mps 728 mmHg 77%
    12:00 -1°C° 0.1 mm 6 mps 728 mmHg 74%
    13:00 -1°C° 0.1 mm 7 mps 728 mmHg 71%
    14:00 -1°C° 0 mm 6 mps 727 mmHg 72%
    15:00 -2°C° 0 mm 6 mps 727 mmHg 74%
    16:00 -2°C° 0 mm 6 mps 727 mmHg 75%
    17:00 -3°C° 0 mm 6 mps 727 mmHg 77%
    18:00 -3°C° 0 mm 6 mps 727 mmHg 78%
    19:00 -4°C° 0 mm 5 mps 727 mmHg 80%
    20:00 -4°C° 0 mm 5 mps 727 mmHg 80%
    21:00 -4°C° 0 mm 5 mps 727 mmHg 80%
    22:00 -4°C° 0 mm 5 mps 727 mmHg 81%
    23:00 -4°C° 0 mm 5 mps 726 mmHg 81%

    Tomorrow, 20 November, Tuesday

    Time Temperature Precipitation Wind Pressure Humidity
    00:00 -5°C° 0 mm 5 mps 726 mmHg 81%
    01:00 -5°C° 0 mm 5 mps 726 mmHg 81%
    02:00 -5°C° 0 mm 6 mps 725 mmHg 80%
    03:00 -5°C° 0 mm 6 mps 725 mmHg 79%
    04:00 -5°C° 0 mm 6 mps 725 mmHg 78%
    05:00 -5°C° 0 mm 6 mps 725 mmHg 78%
    06:00 -5°C° 0 mm 6 mps 724 mmHg 78%
    07:00 -5°C° 0 mm 6 mps 724 mmHg 77%
    08:00 -4°C° 0 mm 6 mps 724 mmHg 75%
    09:00 -3°C° 0 mm 7 mps 723 mmHg 73%
    10:00 -3°C° 0 mm 7 mps 723 mmHg 71%
    11:00 -3°C° 0.1 mm 7 mps 723 mmHg 73%
    12:00 -2°C° 0.1 mm 6 mps 723 mmHg 74%
    13:00 -2°C° 0.1 mm 6 mps 723 mmHg 75%
    14:00 -2°C° 0.3 mm 6 mps 723 mmHg 78%
    15:00 -2°C° 0.3 mm 6 mps 723 mmHg 80%
    16:00 -1°C° 0.3 mm 5 mps 722 mmHg 83%
    17:00 -1°C° 0.2 mm 5 mps 723 mmHg 85%
    18:00 -1°C° 0.2 mm 5 mps 723 mmHg 87%
    19:00 -1°C° 0.2 mm 4 mps 723 mmHg 88%
    20:00 -2°C° 0 mm 4 mps 724 mmHg 90%
    21:00 -1°C° 0 mm 3 mps 724 mmHg 91%
    22:00 -2°C° 0 mm 3 mps 724 mmHg 93%
    23:00 -2°C° 0 mm 3 mps 725 mmHg 93%

    Day after tomorrow, 21 November, Wednesday

    Time Temperature Precipitation Wind Pressure Humidity
    00:00 -2°C° 0 mm 3 mps 725 mmHg 93%
    01:00 -2°C° 0 mm 2 mps 725 mmHg 93%
    02:00 -2°C° 0 mm 2 mps 725 mmHg 94%
    03:00 -2°C° 0 mm 2 mps 725 mmHg 94%
    04:00 -2°C° 0 mm 2 mps 725 mmHg 94%
    05:00 -2°C° 0 mm 2 mps 726 mmHg 94%
    06:00 -2°C° 0 mm 2 mps 726 mmHg 94%
    07:00 -2°C° 0 mm 2 mps 726 mmHg 94%
    08:00 -1°C° 0 mm 3 mps 726 mmHg 92%
    09:00 -1°C° 0 mm 3 mps 727 mmHg 90%
    10:00 0°C° 0 mm 3 mps 727 mmHg 88%
    11:00 +1°C° 0 mm 3 mps 727 mmHg 86%
    12:00 +1°C° 0 mm 4 mps 727 mmHg 85%
    13:00 +1°C° 0 mm 4 mps 727 mmHg 83%
    14:00 +1°C° 0 mm 4 mps 727 mmHg 86%
    15:00 0°C° 0 mm 4 mps 727 mmHg 88%
    16:00 -1°C° 0 mm 4 mps 727 mmHg 91%
    17:00 -1°C° 0 mm 4 mps 727 mmHg 91%
    18:00 0°C° 0 mm 3 mps 728 mmHg 92%
    19:00 0°C° 0 mm 3 mps 728 mmHg 92%
    20:00 0°C° 0 mm 3 mps 728 mmHg 93%
    21:00 -1°C° 0 mm 3 mps 728 mmHg 93%
    22:00 -1°C° 0 mm 3 mps 728 mmHg 93%
    23:00 -1°C° 0 mm 3 mps 728 mmHg 92%

    22 November, Thursday

    Time Temperature Precipitation Wind Pressure Humidity
    00:00 -1°C° 0 mm 3 mps 729 mmHg 92%
    01:00 0°C° 0 mm 3 mps 729 mmHg 91%
    02:00 0°C° 0 mm 3 mps 729 mmHg 91%
    03:00 +1°C° 0 mm 2 mps 729 mmHg 91%
    04:00 +1°C° 0 mm 2 mps 729 mmHg 92%
    05:00 +1°C° 0 mm 2 mps 729 mmHg 92%
    06:00 +1°C° 0 mm 2 mps 729 mmHg 92%
    07:00 +1°C° 0 mm 2 mps 729 mmHg 92%
    08:00 +1°C° 0 mm 2 mps 730 mmHg 91%
    09:00 +1°C° 0 mm 2 mps 730 mmHg 89%
    10:00 +2°C° 0 mm 2 mps 731 mmHg 88%
    11:00 +2°C° 0 mm 2 mps 731 mmHg 87%
    12:00 +3°C° 0 mm 2 mps 731 mmHg 85%
    13:00 +4°C° 0 mm 2 mps 731 mmHg 84%
    14:00 +3°C° 0 mm 2 mps 731 mmHg 86%
    15:00 +3°C° 0 mm 2 mps 731 mmHg 89%
    16:00 +3°C° 0 mm 1 mps 731 mmHg 91%
    17:00 +3°C° 0 mm 1 mps 731 mmHg 92%
    18:00 +3°C° 0 mm 1 mps 732 mmHg 92%
    19:00 +3°C° 0 mm 1 mps 732 mmHg 93%
    20:00 +3°C° 0 mm 1 mps 732 mmHg 93%
    21:00 +2°C° 0 mm 1 mps 732 mmHg 93%
    22:00 +2°C° 0 mm 1 mps 732 mmHg 93%
    23:00 +2°C° 0 mm 1 mps 732 mmHg 93%

    23 November, Friday

    Time Temperature Precipitation Wind Pressure Humidity
    00:00 +2°C° 0 mm 1 mps 733 mmHg 92%
    01:00 +2°C° 0 mm 1 mps 733 mmHg 92%
    02:00 +2°C° 0 mm 1 mps 733 mmHg 92%
    03:00 +1°C° 0 mm 1 mps 733 mmHg 92%
    04:00 +1°C° 0 mm 1 mps 733 mmHg 92%
    05:00 +1°C° 0 mm 1 mps 733 mmHg 92%
    06:00 +1°C° 0 mm 1 mps 733 mmHg 92%
    07:00 +1°C° 0 mm 1 mps 733 mmHg 92%
    08:00 +2°C° 0 mm 1 mps 733 mmHg 89%
    09:00 +2°C° 0 mm 2 mps 734 mmHg 87%
    10:00 +3°C° 0 mm 2 mps 734 mmHg 85%
    11:00 +4°C° 0 mm 2 mps 734 mmHg 82%
    12:00 +5°C° 0 mm 2 mps 733 mmHg 79%
    13:00 +6°C° 0 mm 2 mps 733 mmHg 77%
    14:00 +5°C° 0 mm 2 mps 733 mmHg 81%
    15:00 +4°C° 0 mm 2 mps 732 mmHg 85%
    16:00 +3°C° 0 mm 2 mps 732 mmHg 89%
    17:00 +3°C° 0 mm 2 mps 732 mmHg 90%
    18:00 +2°C° 0 mm 2 mps 732 mmHg 90%
    19:00 +2°C° 0 mm 2 mps 731 mmHg 91%
    20:00 +2°C° 0 mm 2 mps 731 mmHg 92%
    21:00 +2°C° 0 mm 2 mps 731 mmHg 92%
    22:00 +2°C° 0 mm 2 mps 731 mmHg 92%
    23:00 +2°C° 0 mm 2 mps 731 mmHg 93%

    24 November, Saturday

    Time Temperature Precipitation Wind Pressure Humidity
    00:00 +2°C° 0 mm 2 mps 730 mmHg 93%
    01:00 +3°C° 0 mm 1 mps 730 mmHg 93%
    02:00 +3°C° 0 mm 1 mps 730 mmHg 93%
    03:00 +3°C° 0 mm 1 mps 729 mmHg 93%
    04:00 +3°C° 0 mm 1 mps 729 mmHg 93%
    05:00 +3°C° 0 mm 1 mps 729 mmHg 93%
    06:00 +3°C° 0 mm 1 mps 729 mmHg 93%
    07:00 +3°C° 0 mm 1 mps 729 mmHg 93%
    08:00 +4°C° 0 mm 1 mps 729 mmHg 91%
    09:00 +4°C° 0 mm 1 mps 729 mmHg 89%
    10:00 +5°C° 0 mm 1 mps 729 mmHg 86%
    11:00 +5°C° 0 mm 1 mps 728 mmHg 85%
    12:00 +6°C° 0 mm 1 mps 728 mmHg 83%
    13:00 +6°C° 0 mm 1 mps 728 mmHg 81%
    14:00 +6°C° 0.1 mm 1 mps 728 mmHg 84%
    15:00 +5°C° 0.1 mm 1 mps 728 mmHg 86%
    16:00 +5°C° 0.1 mm 1 mps 728 mmHg 89%
    17:00 +3°C° 0.3 mm 0 mps 728 mmHg 90%
    18:00 +3°C° 0.3 mm 0 mps 728 mmHg 92%
    19:00 +3°C° 0.3 mm 0 mps 728 mmHg 93%
    20:00 +3°C° 0.2 mm 0 mps 728 mmHg 93%
    21:00 +4°C° 0.2 mm 1 mps 728 mmHg 93%
    22:00 +4°C° 0.2 mm 1 mps 728 mmHg 93%
    23:00 +3°C° 0.1 mm 1 mps 728 mmHg 94%
    Show more